www.pogodaiklimat.ru
ПОГОДА на Острове Багаскар
Время
(UTC), дата
01 13.10
02 13.10
03 13.10
04 13.10
05 13.10
06 13.10
07 13.10
08 13.10
09 13.10
10 13.10
11 13.10
12 13.10
13 13.10
14 13.10
15 13.10
16 13.10
17 13.10
18 13.10
19 13.10
20 13.10
21 13.10
22 13.10
23 13.10
00 14.10
01 14.10
02 14.10
03 14.10
04 14.10
05 14.10
06 14.10
07 14.10
08 14.10
09 14.10
10 14.10
11 14.10
12 14.10
13 14.10
14 14.10
15 14.10
16 14.10
17 14.10
18 14.10
19 14.10
20 14.10
21 14.10
22 14.10
23 14.10
00 15.10
01 15.10
02 15.10
03 15.10
04 15.10
05 15.10
06 15.10
07 15.10
08 15.10
09 15.10
10 15.10
11 15.10
12 15.10
13 15.10
14 15.10
15 15.10
16 15.10
17 15.10
18 15.10
19 15.10
20 15.10
21 15.10
22 15.10
23 15.10
00 16.10
01 16.10
02 16.10
03 16.10
04 16.10
05 16.10
06 16.10
07 16.10
08 16.10
09 16.10
10 16.10
11 16.10
12 16.10
13 16.10
14 16.10
15 16.10
16 16.10
17 16.10
18 16.10
19 16.10
20 16.10
21 16.10
22 16.10
23 16.10
00 17.10
01 17.10
02 17.10
03 17.10
04 17.10
05 17.10
06 17.10
07 17.10
08 17.10
09 17.10
10 17.10
11 17.10
12 17.10
13 17.10
14 17.10
15 17.10
16 17.10
17 17.10
18 17.10
19 17.10
20 17.10
21 17.10
22 17.10
23 17.10
00 18.10
01 18.10
02 18.10
03 18.10
04 18.10
05 18.10
06 18.10
07 18.10
09 18.10
10 18.10
11 18.10
12 18.10
13 18.10
14 18.10
15 18.10
16 18.10
17 18.10
18 18.10
19 18.10
20 18.10
21 18.10
22 18.10
23 18.10
00 19.10
01 19.10
02 19.10
03 19.10
04 19.10
05 19.10
06 19.10
07 19.10
08 19.10
09 19.10
10 19.10
11 19.10
12 19.10
13 19.10
14 19.10
15 19.10
17 19.10
18 19.10
19 19.10
20 19.10
21 19.10
22 19.10
23 19.10
00 20.10
Ветер
(напр.,м/с)
Видим. Явления Облачность Т
(С)
Тd
(С)
f
(%)
Тe
(С)
Тes
(С)
Комфортность P
(гПа)
Po
(гПа)
Тmin
(С)
Tmax
(С)
R
(мм)
R24
(мм)
S
(см)
З 5-7
{7}
22 км 9/9 600 м
[]
+9.9 +9.6 98 +7 +7 тепло 997.5 996.3
З 6-8
{8}
25 км слаб. ливневой дождь 9/9 1000 м
[]
+9.9 +9.3 96 +6 +6 тепло 997.7 996.5
З 6-7
{8}
22 км в посл. час дождь со снегом {ливн. осадки} 9/9 300 м
[]
+9.8 +9.4 97 +6 +6 тепло 998.2 997.0
З 6-8
{9}
29 км в посл. час дождь 9/9 600 м
[]
+9.9 +9.2 95 +6 +6 тепло 998.5 997.3
З 6-7
{9}
30 км 10/10 300 м
[]
+9.9 +9.2 95 +6 +6 тепло 999.0 997.8
З 7-9
{9}
35 км {ливн. осадки, дождь} 9/9 300 м
[]
+10.2 +9.2 94 +6 +6 тепло 999.6 998.4 +8.9 +10.2
З 7-8
{10}
35 км 9/9 300 м
[]
+10.4 +9.2 92 +7 +7 тепло 1000.4 999.2
З 6-8
{8}
50 км в посл. час морось 10/10 200 м
[]
+10.6 +8.8 89 +7 +7 тепло 1001.3 1000.1
З 7-9
{9}
35 км ливневой дождь 10/0 300 м
[]
+10.8 +9.1 89 +7 +8 тепло 1002.4 1001.2
З 9-12
{12}
50 км в посл. час дождь 1/0 600 м
[]
+11.3 +7.5 77 +8 +8 тепло 1003.5 1002.3
З 8-10
{13}
50 км ясно +11.0 +6.5 74 +7 +8 тепло 1004.5 1003.3
З 7-10
{12}
50 км {ливн. осадки, дождь} 4/0 600 м
[]
+11.4 +6.0 69 +8 +9 тепло 1005.6 1004.3
СЗ 9-12
{12}
50 км 3/0 600 м
[]
+10.3 +4.6 68 +6 +6 тепло 1006.9 1005.7
З 7-10
{11}
50 км ясно +9.5 +4.9 73 +6 +6 тепло 1007.8 1006.6
З 6-8
{10}
50 км ясно +9.0 +5.9 81 +5 +5 тепло 1008.6 1007.3
З 6-8
{9}
50 км ясно +8.9 +6.0 82 +5 +5 тепло 1009.7 1008.4
З 4-6
{8}
50 км ясно +7.9 +5.1 82 +5 +5 тепло 1010.6 1009.3
З 4-5
{5}
50 км ясно +7.4 +5.0 85 +4 +4 по сезону 1011.4 1010.1 +7.4 +11.5
СЗ 5-6
{6}
50 км ясно +7.2 +5.2 87 +3 +3 по сезону 1011.8 1010.6
СЗ 3-4
{6}
50 км ясно +6.4 +5.0 91 +3 +3 по сезону 1012.1 1010.9
З 3-4
{5}
50 км ясно +5.9 +5.1 95 +2 +2 по сезону 1012.6 1011.4
СЗ 2-3
{4}
50 км ясно +5.4 +4.5 94 +3 +3 по сезону 1012.4 1011.2
С 1-1
{2}
50 км 9/0
[]
+5.5 +4.5 93 +4 +4 по сезону 1012.3 1011.1
В 3-4
{4}
50 км 9/0
[]
+5.9 +5.5 97 +2 +2 по сезону 1011.4 1010.2
В 4-5
{5}
50 км 9/0
[]
+7.0 +5.1 88 +3 +3 по сезону 1010.7 1009.5
ЮВ 5-6
{6}
50 км 10/0
[]
+7.8 +6.3 90 +4 +4 по сезону 1010.4 1009.2
Ю 7-9
{9}
50 км 9/9 300 м
[]
+9.0 +6.6 85 +5 +5 тепло 1008.8 1007.6
ЮВ 7-9
{10}
22 км слаб. дождь 10/0 600 м
[]
+8.8 +7.1 89 +5 +5 тепло 1007.9 1006.6
ЮВ 6-8
{9}
20 км слаб. дождь 10/9 200 м
[]
+8.8 +8.3 97 +5 +5 тепло 1007.2 1006.0
Ю 8-10
{11}
11 км слаб. дождь 10/10 200 м
[]
+8.4 +7.6 95 +4 +4 по сезону 1006.3 1005.1 +4.8 +9.1
Ю 8-10
{10}
16 км слаб. дождь 10/10 300 м
[]
+8.7 +7.6 93 +4 +4 по сезону 1005.6 1004.4
ЮВ 9-11
{11}
35 км морось 10/0 300 м
[]
+8.3 +7.3 93 +3 +3 по сезону 1004.3 1003.1
ЮВ 10-12
{12}
9000 м слаб. дождь {морось} 10/0 300 м
[]
+8.1 +7.5 96 +3 +3 по сезону 1004.0 1002.7
В 9-11
{13}
9000 м дождь 10/0 200 м
[]
+7.8 +7.3 97 +2 +3 по сезону 1003.8 1002.6
СВ 9-11
{11}
10 км дождь 10/0 200 м
[]
+7.2 +6.8 97 +2 +2 по сезону 1004.0 1002.7
СВ 9-14
{14}
50 км слаб. морось {дождь} 10/10 200 м
[]
+7.0 +6.5 97 +1 +1 по сезону 1004.4 1003.2
СВ 10-14
{14}
50 км в посл. час морось 9/9 300 м
[]
+7.0 +5.8 92 +1 +1 по сезону 1005.1 1003.8
СВ 9-12
{13}
50 км 9/9 300 м
[]
+6.7 +5.2 90 +1 +1 по сезону 1006.9 1005.7
СВ 9-11
{12}
50 км {морось} 9/9 300 м
[]
+6.6 +5.2 91 +1 +1 по сезону 1008.6 1007.3
СВ 7-10
{13}
50 км 10/10 300 м
[]
+6.0 +4.1 88 +1 +1 по сезону 1010.6 1009.4
СВ 8-11
{11}
50 км 8/0 300 м
[]
+5.7 +4.1 89 0 0 по сезону 1012.0 1010.8
СВ 7-10
{11}
50 км {морось} 3/3 300 м
[]
+5.2 +3.5 89 -0 -0 по сезону 1013.2 1012.0 +5.2 +8.7
СВ 5-7
{9}
50 км 5/0 200 м
[]
+5.2 +4.0 92 0 0 по сезону 1014.6 1013.4
СВ 6-8
{9}
50 км ясно +5.1 +2.8 85 0 0 по сезону 1015.6 1014.3
СВ 6-8
{9}
50 км ясно +4.9 +2.5 84 -0 -0 по сезону 1016.5 1015.2
СВ 5-6
{8}
50 км ясно +4.5 +2.5 87 -0 -0 по сезону 1017.3 1016.0
С 3-5
{6}
50 км ясно +3.4 +2.1 91 -1 -1 по сезону 1018.3 1017.0
С 2-3
{4}
50 км ясно +3.0 +2.3 95 -0 -0 по сезону 1019.1 1017.9
С 3-3
{4}
50 км ясно +2.9 +2.5 97 -1 -1 по сезону 1019.9 1018.7
СЗ 2-2
{3}
50 км ясно +2.8 +2.4 97 -1 -1 по сезону 1020.8 1019.5
-4
{4}
30 км ясно +2.4 +2.2 99 1020.9 1019.6
СВ 4-5
{5}
50 км ясно +3.3 +2.7 96 -2 -2 по сезону 1020.9 1019.7
СВ 3-4
{5}
50 км 1/0
[]
+3.1 +2.0 92 -1 -1 по сезону 1021.5 1020.3
В 4-5
{5}
50 км 1/0 200 м
[]
+4.1 +2.3 88 -0 -0 по сезону 1021.6 1020.3 +2.0 +5.4
ЮВ 3-5
{5}
50 км 9/5 300 м
[]
+5.8 +3.2 83 +3 +3 по сезону 1022.6 1021.4
ЮВ 3-5
{5}
50 км 9/8 300 м
[]
+6.7 +3.6 81 +4 +4 по сезону 1022.7 1021.5
ЮВ 4-6
{6}
50 км 9/9 600 м
[]
+6.8 +3.4 79 +3 +3 по сезону 1022.7 1021.5
ЮВ 5-7
{7}
50 км 9/4 600 м
[]
+7.2 +3.3 76 +3 +4 по сезону 1022.8 1021.5
ЮВ 5-8
{8}
50 км 9/4 600 м
[]
+7.5 +3.0 73 +4 +4 по сезону 1022.3 1021.1
ЮВ 6-7
{8}
50 км 9/9 300 м
[]
+7.3 +3.6 77 +3 +3 по сезону 1022.3 1021.1
ЮВ 8-9
{9}
50 км 10/0
[]
+7.2 +3.7 78 +2 +2 по сезону 1022.0 1020.7
В 7-9
{10}
50 км 10/0
[]
+7.4 +3.7 77 +3 +3 по сезону 1021.8 1020.6
В 8-10
{11}
50 км 10/10 600 м
[]
+7.6 +4.1 78 +3 +3 по сезону 1021.8 1020.5
В 9-12
{13}
50 км 10/0
[]
+7.9 +4.0 76 +3 +3 по сезону 1020.9 1019.7
ЮВ 11-13
{13}
50 км 9/3 600 м
[]
+8.3 +4.9 79 +3 +3 по сезону 1020.7 1019.5
ЮВ 10-13
{14}
50 км 9/9 600 м
[]
+8.2 +4.7 79 +3 +3 по сезону 1020.4 1019.1 +4.1 +8.4
ЮВ 11-15
{15}
50 км 10/0
[]
+8.2 +4.7 79 +3 +3 по сезону 1020.1 1018.8
ЮВ 12-15
{15}
50 км 10/0 2000 м
[]
+8.2 +4.7 79 +3 +3 по сезону 1019.6 1018.3
ЮВ 12-16
{16}
50 км 10/10 300 м
[]
+8.1 +4.9 80 +3 +3 по сезону 1019.2 1017.9
ЮВ 12-15
{16}
50 км 9/4 300 м
[]
+7.9 +4.7 80 +2 +2 по сезону 1018.4 1017.2
ЮВ 12-15
{16}
50 км 9/9 300 м
[]
+7.9 +5.3 84 +2 +2 по сезону 1017.4 1016.1
ЮВ 11-14
{15}
50 км 10/0 300 м
[]
+7.8 +5.7 87 +2 +2 по сезону 1016.7 1015.5
В 12-14
{15}
50 км 10/0 300 м
[]
+7.8 +5.6 86 +2 +2 по сезону 1015.7 1014.4
В 11-15
{15}
50 км 10/0 300 м
[]
+8.0 +6.1 88 +2 +2 по сезону 1014.8 1013.6
ЮВ 12-14
{15}
50 км 10/0 300 м
[]
+8.0 +6.2 88 +2 +2 по сезону 1014.0 1012.7
ЮВ 11-14
{14}
50 км 10/0 300 м
[]
+8.1 +6.5 90 +3 +3 по сезону 1013.3 1012.0
ЮВ 11-14
{14}
50 км 10/0 300 м
[]
+7.9 +6.3 90 +2 +2 по сезону 1012.5 1011.2
ЮВ 10-13
{14}
50 км 10/0 300 м
[]
+7.8 +6.2 90 +2 +2 по сезону 1012.0 1010.8 +7.4 +8.3
ЮВ 10-12
{13}
30 км 10/0 300 м
[]
+7.9 +6.4 90 +2 +2 по сезону 1011.6 1010.3
ЮВ 8-11
{12}
30 км 10/0 200 м
[]
+7.8 +6.3 90 +3 +3 по сезону 1011.1 1009.8
В 8-10
{11}
28 км 10/0 200 м
[]
+8.0 +6.7 91 +3 +3 по сезону 1010.5 1009.3
В 8-10
{10}
28 км 10/0 200 м
[]
+8.0 +6.6 91 +3 +3 по сезону 1010.1 1008.9
В 8-11
{11}
19 км 10/0 200 м
[]
+8.0 +6.8 92 +3 +3 по сезону 1009.7 1008.5
В 10-13
{13}
20 км 10/0 200 м
[]
+8.2 +7.1 93 +3 +3 по сезону 1009.2 1008.0
В 10-12
{13}
18 км 10/0 200 м
[]
+8.4 +7.1 92 +3 +3 по сезону 1009.2 1007.9
В 10-14
{14}
20 км 10/0 200 м
[]
+8.6 +7.3 92 +3 +3 по сезону 1009.2 1008.0
СВ 7-10
{14}
8000 м дымка 10/0 100 м
[]
+6.4 +6.0 97 +1 +1 по сезону 1009.0 1007.8
В 6-10
{10}
7000 м дымка 10/0 50 м
[]
+6.3 +6.0 98 +1 +1 по сезону 1009.1 1007.8
В 7-11
{11}
8000 м дымка 10/0 50 м
[]
+6.2 +6.0 99 +1 +1 по сезону 1009.0 1007.7
В 6-10
{11}
4700 м дымка 10/0 50 м
[]
+6.3 +6.1 99 +1 +1 по сезону 1009.0 1007.7 +6.1 +8.6
СВ 6-9
{11}
6000 м дымка 10/0 50 м
[]
+6.2 +6.0 99 +1 +1 по сезону 1008.6 1007.3
В 6-11
{12}
9000 м дымка 10/0 100 м
[]
+6.0 +5.9 99 +1 +1 по сезону 1008.6 1007.3
В 7-11
{12}
9000 м дымка 10/0 50 м
[]
+6.1 +5.8 98 +1 +1 по сезону 1008.3 1007.1
В 6-9
{11}
9000 м дымка 10/0 50 м
[]
+5.9 +5.7 99 +1 +1 по сезону 1008.3 1007.0
В 8-12
{12}
11 км 10/0 50 м
[]
+5.8 +5.6 99 0 0 по сезону 1007.9 1006.7
В 7-12
{14}
11 км 10/0 50 м
[]
+5.8 +5.5 98 0 0 по сезону 1007.8 1006.6
В 8-13
{13}
11 км 10/0 50 м
[]
+5.9 +5.7 99 0 0 по сезону 1007.4 1006.1
В 7-11
{13}
10 км 10/0 50 м
[]
+5.9 +5.7 99 0 0 по сезону 1007.5 1006.3
В 8-12
{13}
10 км 10/0 50 м
[]
+6.3 +6.1 99 +1 +1 по сезону 1007.2 1006.0
В 8-12
{14}
9000 м дымка 10/0 100 м
[]
+6.3 +6.1 99 +1 +1 по сезону 1006.9 1005.6
В 9-13
{13}
9000 м слаб. морось 10/0 100 м
[]
+6.5 +6.4 99 +1 +1 по сезону 1006.4 1005.2
В 9-15
{15}
14 км в посл. час снег {ливн. осадки, дождь} 10/0 100 м
[]
+6.5 +6.3 99 +1 +1 по сезону 1006.5 1005.2 +5.7 +6.7
В 9-14
{14}
10 км 10/0 100 м
[]
+6.9 +6.7 99 +1 +1 по сезону 1006.5 1005.2
В 8-12
{14}
15 км 10/0 100 м
[]
+7.2 +7.0 99 +2 +2 по сезону 1006.8 1005.6
В 7-11
{12}
17 км 10/0 100 м
[]
+6.9 +6.7 99 +2 +2 по сезону 1007.2 1005.9
В 7-11
{12}
18 км в посл. час морось 10/0 100 м
[]
+6.8 +6.5 98 +2 +2 по сезону 1007.3 1006.0
В 8-11
{11}
16 км 10/0 100 м
[]
+6.7 +6.5 99 +1 +1 по сезону 1007.3 1006.1
В 7-11
{12}
16 км 10/0 100 м
[]
+6.8 +6.5 98 +2 +2 по сезону 1007.6 1006.3
В 6-9
{11}
17 км слаб. дождь 10/0 100 м
[]
+6.8 +6.5 98 +2 +2 по сезону 1007.9 1006.7
СВ 6-9
{11}
18 км слаб. морось 10/0 100 м
[]
+6.7 +6.4 98 +2 +2 по сезону 1008.3 1007.1
СВ 6-8
{11}
17 км слаб. морось {дождь} 10/0 100 м
[]
+6.6 +6.2 97 +2 +2 по сезону 1008.7 1007.5
СВ 6-9
{9}
12 км слаб. дождь 10/0 100 м
[]
+6.5 +6.1 97 +2 +2 по сезону 1009.0 1007.7
СВ 6-9
{10}
15 км морось 10/0 100 м
[]
+6.4 +6.1 98 +2 +2 по сезону 1009.3 1008.0
СВ 6-9
{9}
9000 м морось {ливн. осадки, дождь} 10/0 100 м
[]
+6.2 +5.9 98 +1 +1 по сезону 1009.6 1008.4 +6.2 +7.2
СВ 6-9
{9}
9000 м слаб. дождь 10/0 100 м
[]
+6.0 +5.7 98 +1 +1 по сезону 1010.0 1008.8
СВ 6-8
{9}
24 км слаб. ливневой дождь 10/0 100 м
[]
+6.0 +5.7 98 +1 +1 по сезону 1010.2 1008.9
СВ 6-8
{9}
50 км в посл. час снег {ливн. осадки, дождь} 10/0 100 м
[]
+5.9 +5.5 97 +1 +1 по сезону 1010.6 1009.4
СВ 5-7
{7}
50 км 10/0 100 м
[]
+5.9 +5.4 97 +1 +1 по сезону 1010.9 1009.7
СВ 3-5
{6}
50 км 10/0 100 м
[]
+6.1 +5.6 97 +3 +3 по сезону 1011.4 1010.1
СВ 4-5
{6}
50 км {ливн. осадки, дождь} 10/0 100 м
[]
+6.1 +5.6 97 +2 +2 по сезону 1011.5 1010.2
В 2-3
{5}
50 км 10/0 100 м
[]
+6.1 +5.6 97 +3 +3 по сезону 1011.8 1010.5
В 3-4
{4}
50 км 10/0 100 м
[]
+6.3 +5.8 97 +3 +3 по сезону 1011.9 1010.6
В 2-3
{4}
45 км 10/0 100 м
[]
+6.5 +6.0 97 +4 +4 по сезону 1012.0 1010.8
В 2-3
{4}
35 км 10/0 100 м
[]
+6.9 +6.4 97 +4 +4 по сезону 1012.1 1010.9
ЮВ 3-4
{4}
35 км 10/0 100 м
[]
+7.9 +7.5 97 +5 +5 тепло 1012.1 1010.8
ЮВ 3-4
{4}
40 км 10/0 100 м
[]
+8.6 +8.0 96 +6 +6 тепло 1012.2 1011.0 +5.8 +8.6
ЮВ 4-5
{5}
45 км 10/0 200 м
[]
+9.2 +8.5 95 +6 +6 тепло 1012.3 1011.1
ЮВ 5-6
{6}
50 км 10/0 300 м
[]
+10.2 +9.4 95 +7 +7 тепло 1012.6 1011.4
Ю 4-5
{7}
45 км 10/0 200 м
[]
+10.5 +9.8 95 +8 +8 тепло 1012.6 1011.3
Ю 4-6
{6}
21 км 10/0 300 м
[]
+10.7 +9.8 94 +8 +9 тепло 1012.2 1010.9
Ю 4-5
{6}
3400 м морось {дождь} 10/0 300 м
[]
+10.7 +10.2 97 +8 +9 тепло 1011.9 1010.7
ЮВ 3-4
{6}
4800 м в посл. час морось 10/0 50 м
[]
+10.5 +10.2 98 +8 +9 тепло 1011.4 1010.2
ЮВ 4-6
{6}
2500 м дымка ?/? +10.4 +10.3 99 +8 +8 тепло 1011.4 1010.1
ЮВ 5-6
{6}
1800 м морось {ливн. осадки, дождь} 10/0 50 м
[]
+10.6 +10.5 99 +7 +7 тепло 1011.1 1009.9
ЮВ 5-6
{6}
1400 м в посл. час морось ?/? +10.7 +10.6 99 +8 +8 тепло 1011.0 1009.8
Ю 4-6
{6}
600 м туман ?/? +10.8 +10.8 100 +8 +8 тепло 1010.8 1009.6
ЮЗ 5-6
{6}
700 м туман {ливн. осадки, дождь} ?/? +11.5 +11.4 99 +9 +9 тепло 1010.6 1009.4 +8.6 +11.5
ЮЗ 5-6
{7}
2700 м в посл. час морось 10/0 50 м
[]
+11.2 +11.1 99 +8 +8 тепло 1010.5 1009.3
ЮЗ 4-5
{5}
6000 м дымка 10/10 <50 м
[]
+11.4 +11.3 99 +9 +9 тепло 1010.2 1009.0
ЮЗ 4-5
{5}
500 м туман {ливн. осадки, дождь} 9/0 50 м
[]
+11.1 +11.0 99 +9 +9 тепло 1010.0 1008.8
Ю 4-5
{5}
2300 м в посл. час туман 10/10 <50 м
[]
+11.1 +11.1 100 +9 +9 тепло 1009.7 1008.5
Ю 4-5
{5}
500 м морось ?/? +11.0 +11.0 100 +8 +8 тепло 1009.3 1008.0
Ю 5-5
{7}
400 м туман {ливн. осадки, дождь} ?/? +11.1 +11.1 100 +8 +8 тепло 1008.7 1007.5
Ю 6-7
{7}
600 м туман ?/? +11.2 +11.2 100 +8 +8 тепло 1007.9 1006.7
Ю 5-6
{7}
2200 м в посл. час туман 10/0 100 м
[]
+11.2 +11.1 99 +8 +8 тепло 1007.4 1006.1
Ю 6-7
{7}
1300 м морось {дождь} ?/? +11.3 +11.2 99 +8 +8 тепло 1006.9 1005.7
Ю 6-8
{8}
2300 м в посл. час морось 10/0 100 м
[]
+11.3 +11.2 99 +8 +8 тепло 1006.7 1005.5
Ю 5-7
{8}
2100 м дымка 10/0 200 м
[]
+11.3 +11.3 100 +8 +8 тепло 1006.1 1004.9
Ю 6-7
{7}
1800 м дымка {ливн. осадки, дождь} 9/9 200 м
[]
+11.0 +11.0 100 +8 +8 тепло 1005.4 1004.2 +10.9 +11.5
Ю 7-9
{9}
4400 м дымка 10/0 100 м
[]
+11.3 +11.3 100 +8 +8 тепло 1005.4 1004.2
ЮЗ 8-10
{16}
8000 м дождь 9/9 200 м
[]
+11.2 +10.8 97 +7 +7 тепло 1005.6 1004.3
ЮЗ 10-12
{12}
13 км {ливн. осадки, дождь} 10/10 600 м
[]
+11.5 +11.0 97 +7 +7 тепло 1006.1 1004.8
ЮЗ 9-12
{12}
12 км 10/10 100 м
[]
+11.5 +11.0 97 +8 +8 тепло 1006.1 1004.9
З 12-13
{15}
40 км 9/0 300 м
[]
+11.7 +10.3 91 +7 +7 тепло 1006.7 1005.5
З 11-14
{14}
40 км {ливн. осадки, дождь} ясно +11.8 +10.0 89 +8 +8 тепло 1007.1 1005.9
З 11-14
{14}
35 км 6/0 300 м
[]
+11.6 +9.7 88 +8 +8 тепло 1007.7 1006.5
З 10-13
{14}
29 км 8/8 300 м
[]
+11.0 +9.7 92 +7 +7 тепло 1008.1 1006.9
З 10-13
{14}
30 км 9/9 300 м
[]
+11.0 +9.6 91 +7 +7 тепло 1008.6 1007.3
З 11-13
{13}
30 км 9/1 300 м
[]
+10.5 +9.2 92 +6 +6 тепло 1009.1 1007.9
З 10-12
{13}
30 км 9/0 300 м
[]
+10.9 +9.5 91 +7 +7 тепло 1009.5 1008.3 +10.5 +12.1
З 10-12
{13}
27 км 9/0 600 м
[]
+10.8 +9.5 92 +7 +7 тепло 1009.8 1008.6
З 10-12
{12}
26 км 10/0 300 м
[]
+10.8 +9.6 92 +7 +7 тепло 1010.5 1009.3
З 9-11
{11}
24 км 9/0 300 м
[]
+10.8 +9.8 94 +7 +7 тепло 1011.2 1010.0
З 7-9
{11}
27 км 9/0 300 м
[]
+10.8 +9.6 92 +7 +7 тепло 1011.7 1010.5
З 5-6
{9}
23 км 5/5 300 м
[]
+9.8 +9.0 95 +6 +6 тепло 1011.8 1010.6
З 8-9
{11}
18 км 9/0 200 м
[]
+10.6 +10.2 97 +7 +7 тепло 1012.3 1011.1
Местоположение метеостанции Остров Багаскар (Финляндия): широта 59.93 долгота 24.01 высота над уровнем моря 12 м.
В архиве по умолчанию представлена погода на Острове Багаскар за последнюю неделю. Архивные данные за месяц целиком и за предыдущие месяцы, начиная с января 2011 года, Вы можете получить, выбрав интересующий диапазон дат из раскрывающегося списка и нажав кнопку "Найти!".
*Определитесь, кто Вы:
Внимание! Время в таблицах - всемирное. Для получения местного времени необходимо прибавить поправку, которая равна 1 ч.
Смотрите также архив погоды в соседних городах и на ближайших метеорологических станциях:
Партнеры нашего сайта:      
Пояснения к столбцам:
  • Ветер - указаны скорость ветра в м/с - средняя за 10 мин, порывы в срок и между сроками (в фигурных скобках) и направление, откуда дует ветер: С - северный,
  • СВ - северо-восточный, В - восточный, ЮВ - юго-восточный, Ю - южный, ЮЗ - юго-западный, З - западный, СЗ - северо-западный.
  • Видимость - горизонтальная дальность видимости в метрах или километрах. При видимости от 1 до 10 км при отсутствии осадков обычно наблюдается дымка, при ухудшении видимости до 1 км и менее - туман. В сухую погоду видимость может ухудшаться дымом, пылью или мглою.
  • Явления - указаны атмосферные явления, наблюдавшиеся в срок или в последний час перед сроком; фигурными скобками обозначены явления, наблюдавшиеся между сроками (за 1-3 часа до срока); квадратными скобками обозначены град или гололедные отложения с указанием их диаметра в мм.
  • Облачность - указаны через наклонную черту общая и нижняя облачность в баллах и высота нижней границы облаков в метрах; квадратными скобками обозначены формы облаков: Ci - перистые, Cs - перисто-слоистые, Cc - перисто-кучевые, Ac - высококучевые, As - высокослоистые, Sc - слоисто-кучевые, Ns - слоисто-дождевые, Cu - кучевые, Cb - кучево-дождевые. Подробнее классификацию облаков см. в Атласе облаков (PDF).
  • T - Температура воздуха - температура, измеренная на высоте 2 м над землей.
  • Td - Температура точки росы - температура, при понижении до которой содержащийся в воздухе водяной пар достигнет насыщения.
  • f - Относительная влажность воздуха - влажноcть воздуха, измеренная на высоте 2 м над землей.
  • Te - Эффективная температура - температура, которую ощущает одетый по сезону человек в тени. Характеристика душности погоды. При расчете учитывается влияние влажности воздуха и скорости ветра на теплоощущения человека.
  • Tes - Эффективная температура на солнце - температура, которую ощущает человек, с поправкой на солнечный нагрев. Характеристика знойности погоды. Зависит от высоты солнца над горизонтом, облачности и скорости ветра. Ночью, в пасмурную погоду, а также при ветре 12 м/с и более поправка равна нулю.
  • P - Атмосферное давление - приведенное к уровню моря атмосферное давление.
  • Po - Атмосферное давление - измеренное на уровне метеостанции атмосферное давление.
  • Tmin - Минимальная температура - минимум температуры воздуха на высоте 2 м над землей.
  • Tmax - Максимальная температура - максимум температуры воздуха на высоте 2 м над землей.
  • R - Количество осадков - Количество выпавших осадков за период времени, мм. При наведении курсора мыши на число - период времени, за который выпало указанное количество осадков.
  • R24 - Количество осадков - Количество выпавших осадков за 24 часа, мм.
  • S - Снежный покров - Высота снежного покрова, см. При наведении курсора мыши на число - состояние снежного покрова и степень покрытия местности в баллах.